This demonstration page uses our WeatherBlox Daily Observations layout. Learn more.

Left ArrowRight Arrow

38.88101, -77.10428

Hourly Observations for May 28, 2016

Temp ( °F °C ) Dew Point ( °F °C ) Humidity (%) Winds ( mph kmh ) Pressure ( in mb ) Visibility ( mi km ) Precip ( " mm )
2:52 am 02:52 Partly Cloudy 73 22.8 67 19.4 81 81 S 10 17 30.09 1019 10 16 N/A
3:52 am 03:52 Clear 72 22.2 66 18.9 82 82 S 10 17 30.09 1019 10 16 N/A
4:52 am 04:52 Clear 71 21.7 65 18.3 81 81 S 7 11 30.11 1020 10 16 N/A
5:52 am 05:52 Mostly Sunny 70 21.1 64 17.8 82 82 S 8 13 30.13 1020 10 16 N/A
6:52 am 06:52 Mostly Sunny 71 21.7 63 17.2 76 76 S 9 15 30.13 1020 10 16 N/A
7:52 am 07:52 Mostly Sunny 72 22.2 63 17.2 73 73 S 8 13 30.14 1021 10 16 N/A
8:52 am 08:52 Mostly Sunny 74 23.3 64 17.8 71 71 S 9 15 30.16 1021 10 16 N/A
9:52 am 09:52 Mostly Sunny 76 24.4 65 18.3 69 69 S 12 19 30.16 1022 10 16 N/A
10:52 am 10:52 Mostly Sunny 79 26.1 67 19.4 67 67 S 9 15 30.16 1021 10 16 N/A
11:52 am 11:52 Mostly Sunny 81 27.2 68 20 65 65 SSE 9 15 30.16 1021 10 16 N/A
12:52 pm 12:52 Mostly Sunny 84 28.9 70 21.1 63 63 S 10 17 30.15 1021 10 16 N/A
1:52 pm 13:52 Partly Cloudy 86 30 69 20.6 57 57 S 13 20 30.14 1021 10 16 N/A
2:52 pm 14:52 Partly Cloudy 86 30 69 20.6 57 57 S 13 20 30.13 1020 10 16 N/A
3:52 pm 15:52 Partly Cloudy 86 30 67 19.4 53 53 S 13 20 30.12 1020 10 16 N/A
4:52 pm 16:52 Partly Cloudy 86 30 66 19 52 52 S 12 19 30.09 1019 10 16 N/A
5:52 pm 17:52 Partly Cloudy 84 28.9 67 19.4 57 57 S 13 20 30.09 1019 10 16 N/A
6:52 pm 18:52 Partly Cloudy 82 27.8 68 20 63 63 S 10 17 30.10 1019 10 16 N/A
7:52 pm 19:52 Mostly Cloudy 80 26.7 66 18.9 62 62 S 9 15 30.11 1020 10 16 N/A
8:52 pm 20:52 Mostly Cloudy 79 26.1 65 18.3 62 62 SSE 8 13 30.13 1020 10 16 N/A
9:52 pm 21:52 Mostly Cloudy 77 25 64 17.8 64 64 S 8 13 30.14 1021 10 16 N/A
10:52 pm 22:52 Mostly Cloudy 75 23.9 62 16.7 64 64 S 7 11 30.14 1021 10 16 N/A
11:52 pm 23:52 Partly Cloudy 73 22.8 63 17.2 71 71 S 7 11 30.15 1021 10 16 N/A

Powered by AerisWeather